RH
15 15 15 13 12 12 10 11 13 14 14 14 14 14 15 14 13 14 15 16 17 18 19 21 21 21 21 22 22 22 26 30 28 27 25 24 23 25 26 25 26 25 25 25 25
13 12 12 11 11 11 11 13 14 15 15 14 15 15 15 14 13 12 15 16 16 18 20 19 19 19 18 19 22 23 28 27 25 22 23 24 24 24 25 24 24 24 24 24 24
12 12 11 11 12 11 13 14 16 16 16 15 16 16 16 16 13 15 15 15 16 18 19 19 18 19 19 18 20 21 24 24 23 22 22 23 23 22 23 24 23 23 23 23 24
12 12 12 12 11 13 14 16 16 16 15 14 15 16 17 17 16 16 15 15 14 15 16 17 18 17 17 18 18 20 22 21 22 21 21 21 21 22 22 22 21 22 24 25 25
12 12 11 12 13 14 16 18 17 15 15 16 16 16 15 15 16 16 16 15 15 15 16 17 16 16 18 19 19 20 21 21 20 21 21 20 20 20 20 21 23 24 26 26 27
12 14 12 14 15 16 17 17 16 16 16 17 17 16 16 16 17 16 16 15 15 16 16 16 16 16 17 20 20 21 20 21 21 20 19 19 20 20 21 22 23 25 27 27 29
13 14 14 17 17 17 17 17 16 16 17 17 18 17 17 17 17 16 15 14 15 15 14 15 15 15 17 19 20 21 23 22 21 20 19 18 21 22 22 23 24 26 27 29 31
13 14 16 18 18 17 17 17 15 16 16 17 17 16 16 17 16 16 14 13 14 15 14 15 15 16 17 20 23 22 23 26 22 20 19 20 24 22 23 24 25 27 29 30 32
13 15 18 19 18 17 18 16 15 15 16 16 16 15 15 15 16 15 14 12 13 15 15 16 15 17 20 22 25 23 25 25 23 21 21 22 25 24 25 26 27 28 31 32 34
15 17 19 19 17 18 18 16 15 15 15 15 15 15 15 15 15 15 14 14 14 14 16 17 19 20 19 20 26 23 20 23 23 21 23 25 25 26 27 27 29 30 32 34 37
17 19 20 19 18 18 17 17 16 15 15 16 16 14 14 14 14 15 15 15 15 15 15 16 18 19 15 15 15 16 16 18 21 21 22 24 26 28 28 29 30 32 35 38 39
19 20 19 18 18 20 22 20 18 18 18 17 16 16 15 15 14 15 15 15 15 15 15 17 17 15 15 14 14 15 15 18 20 21 22 24 28 29 29 30 33 36 38 40 40
19 20 19 19 19 20 21 20 20 20 19 19 18 17 16 15 16 15 15 15 15 16 17 20 16 15 15 15 16 19 19 21 20 23 25 27 29 30 31 33 36 39 39 41 43
20 20 20 19 19 20 21 22 22 21 21 21 19 17 16 17 17 16 16 17 18 20 20 19 19 19 18 18 18 20 20 20 23 26 30 28 34 33 35 37 39 39 41 43 44
21 21 20 20 20 22 22 23 23 24 31 21 20 19 18 18 19 18 17 18 20 21 23 25 21 20 18 19 19 19 22 23 25 28 29 32 37 36 37 39 39 42 43 45 44
22 21 20 21 22 23 23 24 23 29 29 23 22 21 21 20 20 20 20 20 22 25 25 24 22 20 19 20 21 22 25 25 27 31 38 34 34 37 40 39 42 44 45 46 47
22 21 22 23 24 24 22 24 32 33 24 25 24 23 23 24 23 23 25 25 26 29 29 27 26 21 20 22 23 25 28 32 30 40 39 33 34 37 39 41 44 47 48 50 48
22 22 23 24 24 23 24 31 32 26 28 25 25 25 26 26 25 26 27 29 27 29 31 27 25 22 22 23 25 29 29 33 33 36 33 30 34 40 42 45 47 49 51 50 45
23 24 24 24 23 23 28 34 30 28 26 26 27 28 28 27 28 29 30 31 31 28 29 26 27 25 25 25 25 27 31 30 33 32 35 34 39 43 45 46 48 51 50 49 44
24 24 25 24 23 24 30 29 28 27 27 28 28 26 27 27 29 29 31 31 30 28 26 26 27 27 27 27 29 29 30 33 36 37 39 38 41 46 48 48 51 52 53 48 40
25 26 24 24 24 29 32 28 27 27 28 27 26 24 25 26 27 29 32 32 30 29 26 25 27 27 28 30 31 32 33 33 36 39 42 44 41 42 47 50 52 54 53 45 39
28 29 24 24 26 28 28 26 26 27 26 24 24 24 24 26 28 31 33 32 29 28 27 27 28 30 29 30 31 33 34 36 42 41 42 44 42 45 47 50 55 55 50 44 39
29 26 24 25 27 28 25 26 27 26 25 23 23 22 22 25 29 31 33 29 29 30 30 30 32 33 30 33 33 34 36 37 39 42 44 47 50 50 49 54 56 55 48 41 35
28 26 24 26 27 24 23 23 25 24 22 22 22 21 21 23 25 29 31 30 29 31 31 32 35 34 35 34 35 37 38 39 43 48 48 51 50 51 55 58 59 53 44 37 35
28 29 26 26 25 23 22 21 21 20 19 21 22 22 22 22 24 26 29 28 29 32 32 32 34 37 38 38 39 40 42 44 47 49 50 52 53 54 59 59 57 47 40 37 35
26 27 27 26 25 24 23 21 20 20 20 20 22 22 21 22 23 25 27 27 26 29 29 31 34 35 38 38 38 41 43 47 50 53 55 55 53 55 58 57 51 42 39 39 31
27 27 27 27 25 25 24 23 21 20 22 21 22 22 22 22 22 22 24 25 25 26 27 29 31 33 35 36 40 46 47 49 51 55 56 54 53 56 58 54 46 42 42 39 18